Starlink 30836

operational
NORAD ID: 58221 Int'l Des: 2023-170 Owner: SPXS Country: US Constellation: starlink
LEOCIRCULAR

About Starlink 30836

Description loading...

Live Position

Loading 3D Globe...

Upcoming Passes

Altitude History

Altitude vs Time

uPlot chart will show altitude changes over time

Two-Line Element Set

1 58221U 23170R 25302.99458021 .00004275 00000-0 33138-3 0 9990
2 58221 43.0041 185.7276 0001201 255.2921 104.7788 15.02532333110620
Epoch: Oct 29, 2025 • Age: 25 hours

Current Status

Altitude 566.4 km
Velocity 7.58 km/s
Sub-Earth Point -30.01°S, 13.59°W
Launch Date Nov 4, 2023
Age 1.9 years
Type internet

Technical Details

Classification Payload
Mass 730.00 kg
Dry Mass 700.00 kg
Total Mass 730.00 kg
Length 0.30 m
Diameter 4.10 m
Span 29.00 m
Shape Box + pan
Manufacturer SPXS
Bus Type Starlink V2M
Phase Status In Orbit
Owner/State SPXS/US

Large Constellations

Loading constellations...